Showing default

S-NET C, 43189

Orbit data source: Space-Track

S-NET C, 43189 is a payload satellite owned by TUB (DE) in SSO that was launched on Thu, 01 Feb 2018 UTC via a SOYUZ-2-1A launch vehicle from the Vostochny Cosmodrome (VOSTO). Payload-class satellites include a variety of spacecraft equipped with specific instruments for various scientific and technological missions. These include communications satellites like Starlink; space stations such as the ISS; scientific satellites like the Hubble; Earth observation satellites from companies like Planet Labs, Umbra, and HawkEye 360; GPS; miniature CubeSats for education and research; and military/defense satellites.

Loading next visibility...
Identifier
43189, 2018-014K
Orbit
SSO
Country
Flag of DEDE / GER
Related business
Manufacturer
TUB
Mission
Operational Amateur Com/Tech
Bus & Motor
TUBIX10, Unknown motor
Mass
8 kg wet, 8 kg dry
Launch date (UTC)
2018-02-01 (9 years ago)
Launch vehicle
SOYUZ-2-1A
Launch site
Vostochny Cosmodrome (VOSTO)
Object type
Payload
Rocket body
Debris
Shape & HBR
Box, 1.0 m
Radar Cross Section
0.086 m², Medium (>0.1 m² and < 1m²)

Expand to show TLE details & history
Last TLE update: 7 hours ago

TLE from 7 hours ago
0 S-NET C
1 43189U 18014K   26254.68945610  .00003882  00000-0  19785-3 0  9991
2 43189  97.5291 159.2370 0011615  70.5531 289.6956 15.17312752470428
Epoch: 2026-09-11T16:32Z
TLE epoch observation values (Epoch: 2026-09-11T16:32:49.007Z)
Latitude
-0.00003°
Longitude
-79.6764°
Altitude
514.359 km
Speed
7.608 km/s
True Right ascension
10h 36m 56s
True Declination
0° 00' 00"
Sunlit
Object was in daylight at epoch
Visualization orbit readout
Latitude
Unknown
Longitude
Unknown
Altitude
Unknown
Speed
Unknown
Apparent Right ascension
Unknown
Apparent Declination
Unknown
Sunlit
N/A
Visualization observer readout
Local Sidereal Time
15:47:30
Azimuth
Unknown
Elevation
Unknown
Doppler factor
Unknown
Orbital elements
Apogee altitude
518.943 km
Perigee altitude
502.939 km
Semi-major axis
6,889.078 km
Eccentricity
0.00116
Inclination
97.5291°
RAAN
159.237°
Arg. of periapsis
70.5531°
True anomaly
289.57023°
Mean anomaly
289.6956°
Eccentric anomaly
289.63292°
Mean motion
3.79578 °/min
Orbital period
94.84 mins
BSTAR
0.00019785
Loading maneuver chart data...
Computing Atmospheric mass density...
Loading historical data...
Loading historical data...
Loading historical data...
Loading historical data...
Loading historical data...
Loading historical data...
Loading historical data...

Documentation

Showing up to 5 results
|